Temp
-8 -7 -7 -7 -6 -6 -6 -6 -6 -6 -6 -6 -6 -6 -6 -6 -6 -6 -6 -6 -6 -6 -6 -6 -6 -6 -6 -6 -5 -5 -4 -4 -5 -7 -6 -9 -9 -5 -6 -5 -5 -4 -7 -6 -6
-7 -7 -7 -7 -7 -7 -7 -7 -6 -6 -6 -6 -6 -6 -6 -6 -6 -6 -6 -6 -6 -6 -7 -6 -6 -6 -6 -6 -5 -5 -5 -5 -6 -7 -9 -9 -9 -6 -5 -7 -7 -6 -7 -6 -7
-7 -7 -7 -7 -7 -7 -7 -7 -6 -6 -6 -6 -6 -6 -6 -6 -6 -6 -6 -6 -7 -7 -7 -6 -6 -6 -6 -6 -6 -5 -5 -5 -6 -7 -7 -9 -8 -9 -8 -6 -7 -8 -7 -7 -7
-7 -7 -7 -7 -7 -7 -7 -7 -7 -6 -6 -6 -6 -6 -6 -6 -6 -7 -6 -6 -7 -7 -7 -6 -6 -6 -6 -6 -6 -6 -5 -6 -5 -7 -8 -7 -7 -6 -8 -9 -9 -5 -8 -8 -7
-7 -7 -7 -7 -7 -7 -7 -7 -7 -6 -6 -6 -6 -6 -6 -6 -6 -6 -6 -6 -6 -7 -6 -6 -6 -6 -6 -6 -6 -6 -6 -5 -6 -6 -8 -7 -8 -5 -3 -8 -7 -7 -8 -9 -8
-7 -7 -7 -7 -7 -7 -7 -7 -7 -7 -6 -6 -6 -6 -6 -6 -6 -6 -6 -6 -6 -6 -6 -6 -6 -6 -6 -6 -6 -6 -6 -5 -5 -6 -7 -7 -8 -6 -6 -9 -7 -8 -8 -8 -9
-7 -7 -7 -7 -7 -7 -7 -7 -7 -7 -7 -7 -7 -7 -6 -6 -6 -6 -7 -7 -7 -7 -7 -6 -6 -6 -6 -6 -6 -6 -6 -6 -6 -6 -7 -7 -7 -7 -6 -7 -7 -7 -8 -7 -6
-8 -8 -8 -8 -8 -7 -7 -7 -7 -7 -7 -7 -7 -7 -7 -7 -7 -7 -7 -7 -7 -7 -7 -7 -7 -7 -7 -6 -6 -6 -6 -6 -7 -7 -7 -7 -7 -8 -7 -8 -8 -7 -7 -6 -6
-8 -8 -8 -8 -8 -8 -8 -7 -7 -8 -7 -7 -7 -7 -8 -7 -7 -7 -7 -7 -7 -7 -7 -7 -7 -7 -7 -7 -7 -7 -7 -7 -7 -8 -8 -8 -8 -8 -8 -8 -7 -7 -7 -6 -7
-8 -8 -8 -8 -8 -8 -8 -8 -8 -8 -8 -8 -8 -8 -8 -8 -8 -8 -8 -8 -8 -8 -8 -8 -7 -8 -8 -8 -8 -8 -8 -7 -7 -7 -8 -8 -8 -9 -9 -10 -10 -7 -7 -8 -8
-9 -9 -9 -9 -8 -8 -8 -8 -8 -8 -8 -8 -8 -9 -9 -8 -8 -8 -8 -8 -8 -8 -8 -8 -8 -9 -9 -9 -9 -9 -9 -9 -9 -9 -9 -9 -8 -10 -9 -11 -10 -8 -9 -9 -9
-9 -9 -9 -9 -9 -9 -9 -9 -9 -9 -9 -9 -9 -9 -9 -9 -9 -9 -9 -9 -9 -9 -9 -9 -9 -10 -10 -10 -9 -9 -10 -10 -9 -10 -10 -10 -9 -10 -10 -10 -10 -9 -10 -10 -10
-9 -9 -9 -9 -9 -9 -9 -9 -9 -9 -9 -9 -9 -10 -10 -10 -10 -10 -10 -10 -10 -10 -10 -10 -11 -12 -13 -12 -12 -12 -11 -11 -9 -9 -10 -10 -10 -10 -10 -10 -11 -9 -10 -10 -9
-9 -9 -9 -9 -9 -9 -9 -10 -10 -10 -10 -11 -11 -11 -11 -11 -11 -11 -12 -11 -11 -11 -11 -11 -13 -13 -13 -13 -13 -12 -12 -11 -10 -10 -10 -10 -10 -9 -10 -11 -11 -10 -10 -10 -10
-9 -9 -10 -10 -10 -10 -10 -10 -10 -10 -12 -12 -13 -12 -12 -13 -13 -13 -13 -12 -12 -12 -12 -12 -13 -13 -13 -13 -13 -13 -13 -12 -12 -12 -11 -9 -10 -10 -10 -10 -11 -11 -11 -11 -11
-10 -10 -10 -10 -10 -11 -10 -10 -11 -12 -12 -12 -12 -12 -12 -13 -12 -13 -12 -13 -13 -12 -12 -12 -12 -12 -12 -12 -13 -13 -12 -13 -13 -13 -12 -11 -12 -11 -11 -11 -11 -11 -11 -11 -11
-10 -10 -11 -11 -11 -11 -11 -11 -12 -12 -12 -12 -12 -12 -12 -13 -13 -12 -13 -13 -12 -12 -12 -12 -13 -12 -11 -12 -13 -13 -13 -13 -13 -13 -13 -13 -12 -12 -12 -12 -12 -12 -11 -11 -10
-11 -11 -11 -11 -11 -12 -12 -12 -12 -12 -13 -12 -12 -12 -13 -13 -13 -13 -13 -13 -12 -12 -12 -12 -12 -13 -13 -13 -12 -13 -13 -13 -13 -13 -13 -13 -13 -12 -13 -13 -12 -11 -12 -11 -11
-11 -12 -12 -12 -12 -12 -12 -12 -12 -12 -13 -13 -13 -13 -13 -13 -13 -13 -14 -13 -13 -13 -13 -13 -12 -13 -14 -14 -14 -14 -15 -15 -13 -14 -12 -12 -13 -12 -12 -12 -12 -12 -11 -12 -10
-12 -12 -12 -12 -12 -12 -13 -12 -13 -13 -13 -13 -13 -13 -13 -13 -13 -13 -14 -13 -13 -13 -14 -14 -13 -14 -14 -14 -15 -15 -15 -15 -16 -14 -13 -13 -13 -13 -12 -12 -12 -11 -12 -11 -12
-12 -12 -12 -12 -12 -13 -13 -13 -13 -13 -13 -13 -13 -13 -13 -14 -14 -14 -14 -13 -13 -14 -14 -14 -14 -14 -15 -15 -16 -15 -16 -17 -17 -16 -16 -15 -14 -14 -14 -13 -13 -13 -12 -12 -12
-12 -12 -12 -13 -13 -13 -13 -14 -14 -14 -14 -14 -14 -14 -14 -14 -14 -14 -14 -14 -14 -14 -14 -14 -14 -14 -16 -17 -17 -17 -17 -17 -17 -16 -17 -16 -15 -15 -15 -14 -13 -13 -13 -12 -12
-13 -13 -13 -13 -13 -13 -14 -14 -14 -14 -14 -14 -14 -14 -14 -14 -14 -14 -14 -14 -14 -14 -15 -15 -15 -15 -16 -17 -18 -19 -18 -18 -18 -18 -18 -17 -17 -16 -15 -14 -14 -14 -14 -14 -13
-13 -13 -13 -13 -14 -14 -14 -14 -14 -14 -14 -14 -14 -14 -14 -14 -15 -15 -15 -15 -15 -15 -15 -15 -16 -17 -18 -18 -18 -18 -18 -19 -18 -18 -18 -18 -18 -18 -17 -16 -16 -15 -14 -15 -15
-13 -13 -14 -14 -14 -14 -14 -14 -14 -14 -14 -14 -14 -14 -14 -14 -15 -15 -15 -15 -15 -15 -15 -15 -15 -17 -19 -19 -18 -18 -19 -19 -19 -19 -18 -18 -18 -18 -18 -18 -18 -18 -17 -16 -15
-14 -14 -14 -14 -14 -14 -14 -14 -15 -14 -14 -14 -14 -15 -15 -15 -15 -15 -16 -16 -16 -16 -15 -15 -16 -17 -19 -19 -19 -19 -19 -19 -19 -19 -19 -19 -18 -18 -18 -17 -18 -17 -17 -17 -17
-14 -14 -14 -14 -14 -14 -14 -14 -15 -15 -15 -15 -15 -15 -15 -16 -16 -16 -16 -16 -16 -16 -16 -16 -16 -17 -18 -19 -19 -19 -19 -19 -19 -19 -19 -19 -19 -19 -19 -19 -18 -17 -18 -18 -17
Height
5888 5887 5886 5884 5882 5881 5879 5877 5877 5876 5876 5876 5875 5875 5875 5874 5874 5874 5875 5876 5876 5877 5880 5883 5885 5886 5888 5887 5887 5886 5888 5890 5892 5893 5890 5896 5886 5859 5873 5878 5894 5888 5892 5895 5895
5883 5882 5880 5879 5877 5875 5873 5872 5872 5871 5871 5870 5870 5871 5870 5869 5871 5870 5872 5872 5872 5873 5875 5879 5881 5882 5884 5884 5884 5883 5885 5889 5890 5889 5883 5889 5886 5866 5863 5876 5875 5886 5888 5888 5888
5878 5877 5875 5875 5873 5871 5869 5868 5867 5867 5866 5866 5866 5867 5866 5865 5868 5867 5868 5869 5869 5870 5872 5874 5877 5879 5880 5880 5880 5880 5883 5884 5886 5886 5881 5883 5882 5880 5874 5840 5868 5877 5884 5884 5883
5873 5872 5871 5870 5869 5867 5866 5864 5863 5863 5862 5862 5862 5862 5862 5862 5867 5862 5864 5865 5865 5866 5868 5870 5872 5873 5875 5876 5875 5876 5877 5879 5882 5882 5879 5880 5874 5873 5874 5870 5871 5845 5880 5884 5886
5869 5868 5866 5865 5864 5863 5862 5861 5859 5859 5858 5858 5858 5858 5859 5858 5860 5859 5860 5861 5861 5862 5863 5865 5866 5868 5870 5871 5871 5872 5872 5872 5876 5876 5875 5876 5869 5865 5868 5866 5868 5846 5872 5880 5885
5864 5863 5862 5860 5859 5859 5858 5856 5855 5854 5854 5854 5854 5854 5855 5855 5856 5854 5855 5856 5856 5857 5859 5860 5861 5861 5863 5865 5866 5866 5867 5868 5869 5872 5871 5871 5866 5862 5860 5859 5862 5859 5873 5875 5874
5859 5858 5857 5856 5855 5854 5853 5851 5852 5850 5849 5850 5850 5850 5850 5849 5850 5850 5851 5851 5852 5853 5853 5854 5855 5856 5858 5859 5859 5860 5862 5862 5864 5866 5868 5867 5865 5857 5859 5857 5864 5869 5873 5876 5871
5853 5853 5853 5852 5851 5849 5848 5847 5847 5845 5845 5845 5845 5846 5845 5845 5845 5846 5846 5847 5847 5848 5849 5850 5850 5851 5852 5852 5854 5855 5856 5857 5859 5859 5864 5860 5859 5857 5854 5853 5856 5864 5870 5869 5867
5849 5849 5848 5847 5845 5844 5843 5843 5842 5841 5841 5841 5842 5842 5842 5841 5841 5841 5841 5841 5841 5843 5843 5844 5845 5846 5846 5846 5847 5849 5850 5850 5851 5851 5853 5854 5857 5856 5847 5845 5847 5856 5862 5863 5858
5845 5843 5843 5842 5841 5840 5839 5839 5838 5837 5837 5837 5837 5838 5837 5837 5837 5837 5836 5837 5836 5837 5838 5838 5839 5840 5840 5840 5843 5842 5842 5843 5845 5848 5844 5845 5848 5852 5842 5840 5839 5847 5846 5847 5849
5839 5838 5838 5837 5836 5835 5835 5835 5835 5835 5833 5833 5833 5833 5832 5832 5832 5832 5832 5832 5832 5833 5832 5832 5834 5833 5834 5833 5835 5834 5835 5836 5840 5842 5837 5839 5839 5843 5846 5838 5835 5840 5842 5844 5845
5836 5835 5834 5833 5832 5832 5831 5830 5830 5831 5830 5828 5829 5828 5827 5826 5826 5827 5826 5827 5827 5827 5827 5828 5829 5827 5826 5827 5828 5829 5828 5829 5830 5834 5832 5834 5835 5837 5838 5835 5834 5836 5838 5837 5836
5832 5831 5830 5830 5829 5828 5828 5828 5827 5826 5826 5825 5825 5824 5825 5824 5821 5822 5822 5821 5821 5820 5820 5820 5823 5823 5825 5826 5825 5824 5822 5822 5822 5827 5826 5825 5825 5828 5831 5831 5828 5826 5830 5833 5829
5830 5829 5828 5827 5828 5826 5825 5825 5824 5822 5821 5820 5821 5821 5823 5820 5819 5819 5818 5818 5816 5816 5815 5816 5819 5820 5821 5821 5820 5815 5816 5814 5814 5816 5818 5823 5816 5823 5826 5827 5827 5823 5822 5825 5828
5829 5828 5827 5826 5825 5825 5825 5824 5821 5820 5820 5821 5821 5821 5819 5820 5820 5817 5815 5813 5811 5810 5812 5816 5811 5809 5808 5805 5804 5801 5800 5804 5805 5806 5807 5812 5810 5814 5821 5823 5823 5818 5814 5811 5813
5828 5827 5826 5825 5824 5824 5822 5822 5821 5822 5820 5820 5819 5820 5820 5818 5816 5813 5812 5809 5805 5806 5807 5808 5803 5801 5799 5800 5797 5794 5793 5795 5795 5798 5797 5806 5808 5812 5808 5808 5808 5808 5796 5794 5798
5827 5826 5826 5825 5824 5823 5822 5820 5821 5819 5818 5819 5817 5817 5817 5814 5810 5810 5808 5802 5799 5801 5802 5805 5801 5796 5793 5792 5793 5788 5785 5784 5787 5789 5789 5794 5796 5794 5799 5795 5793 5794 5793 5787 5785
5827 5826 5826 5824 5823 5821 5820 5819 5818 5817 5818 5818 5816 5815 5812 5808 5805 5804 5802 5796 5793 5792 5794 5791 5794 5790 5788 5782 5782 5781 5775 5779 5776 5778 5776 5782 5783 5782 5784 5784 5781 5780 5779 5779 5781
5826 5825 5824 5824 5821 5820 5819 5817 5816 5815 5815 5814 5812 5811 5808 5803 5802 5800 5796 5791 5785 5786 5785 5779 5780 5782 5777 5775 5773 5772 5771 5769 5758 5762 5762 5771 5773 5764 5769 5772 5767 5772 5773 5773 5771
5826 5824 5823 5822 5819 5818 5816 5814 5814 5813 5811 5809 5808 5806 5804 5801 5799 5795 5790 5788 5784 5779 5777 5775 5770 5769 5767 5765 5766 5761 5759 5758 5757 5753 5751 5756 5756 5759 5761 5760 5757 5760 5763 5766 5766
5823 5823 5821 5819 5816 5815 5813 5811 5809 5810 5807 5805 5803 5800 5799 5796 5793 5790 5785 5781 5779 5776 5772 5768 5763 5762 5757 5754 5750 5748 5745 5746 5744 5742 5740 5740 5745 5746 5745 5744 5748 5750 5756 5757 5756
5819 5819 5817 5815 5814 5811 5810 5808 5807 5804 5803 5800 5798 5795 5794 5791 5789 5786 5782 5777 5773 5770 5767 5761 5756 5751 5748 5748 5743 5738 5735 5735 5733 5735 5732 5727 5730 5723 5731 5736 5738 5741 5744 5745 5743
5815 5812 5812 5810 5808 5808 5806 5805 5803 5800 5798 5795 5793 5790 5788 5785 5783 5780 5776 5771 5768 5764 5760 5755 5749 5743 5742 5743 5740 5730 5729 5726 5725 5724 5725 5723 5719 5714 5720 5723 5727 5732 5731 5733 5733
5810 5807 5808 5805 5805 5802 5801 5799 5797 5796 5793 5790 5788 5785 5782 5780 5776 5773 5769 5765 5762 5757 5753 5749 5743 5737 5733 5730 5726 5728 5723 5721 5716 5716 5716 5713 5712 5711 5708 5708 5710 5713 5714 5713 5718
5805 5802 5800 5799 5801 5797 5796 5794 5792 5789 5787 5785 5782 5779 5776 5773 5770 5767 5763 5760 5756 5751 5747 5743 5738 5733 5730 5726 5723 5720 5716 5714 5710 5710 5706 5702 5705 5704 5700 5700 5699 5699 5698 5697 5699
5798 5796 5796 5794 5792 5791 5790 5789 5787 5784 5782 5777 5776 5773 5769 5766 5763 5759 5756 5752 5749 5745 5741 5737 5733 5727 5726 5721 5719 5716 5711 5709 5707 5706 5702 5697 5696 5691 5691 5692 5689 5690 5689 5686 5685
5792 5790 5788 5788 5787 5785 5782 5782 5780 5778 5775 5773 5770 5767 5763 5760 5756 5752 5748 5745 5742 5739 5735 5731 5728 5722 5721 5716 5714 5713 5708 5705 5702 5699 5696 5692 5689 5686 5684 5683 5681 5681 5679 5679 5676
Wind_Speed
29 30 32 32 31 34 35 35 32 28 24 27 28 25 22 21 17 15 11 14 17 18 22 23 21 18 15 16 17 16 17 12 19 16 10 11 32 7 16 12 20 26 13 19 12
30 31 30 30 29 27 26 25 22 22 24 23 23 22 21 19 16 14 11 14 16 17 20 22 21 20 18 19 18 20 17 11 17 18 6 6 25 16 13 38 35 28 22 18 12
28 28 28 28 26 23 21 19 19 20 20 21 20 20 19 17 13 14 12 13 13 16 19 21 20 20 20 21 21 22 18 15 19 23 18 10 11 33 42 33 17 21 21 20 19
27 29 29 28 25 22 22 19 17 18 18 18 18 18 17 16 13 17 14 15 14 16 19 21 20 20 21 22 22 22 19 16 19 30 28 22 31 32 36 40 41 20 18 22 24
27 27 28 26 24 23 20 18 17 17 17 17 16 17 17 17 15 18 17 18 18 18 21 23 22 22 22 23 24 21 20 21 19 33 37 32 36 44 40 44 36 18 3 14 22
26 25 24 23 22 21 19 17 17 16 16 17 17 17 17 18 16 18 17 17 19 19 20 23 24 25 25 25 26 23 22 21 24 25 38 41 43 49 48 46 45 45 33 28 15
25 25 23 21 20 18 18 16 17 16 16 17 17 18 18 18 18 16 15 16 16 17 18 21 24 26 26 25 26 26 23 22 19 26 27 43 47 53 54 49 41 32 20 30 27
25 22 21 19 18 16 17 16 16 15 17 17 17 17 16 18 16 17 16 16 17 17 18 20 22 24 23 26 25 24 22 20 17 23 27 33 39 46 49 53 47 37 43 43 31
21 19 18 17 16 15 15 14 15 14 16 16 16 16 14 16 16 16 16 15 16 18 18 20 21 22 23 24 22 22 19 19 21 20 21 26 32 33 41 46 43 30 31 36 29
17 16 15 14 14 14 13 13 13 13 13 13 14 15 13 12 12 12 12 13 13 14 16 18 19 19 19 21 19 20 24 27 24 21 23 23 27 17 28 32 41 31 37 28 35
14 13 13 14 14 15 15 16 16 16 16 16 16 15 14 15 16 16 16 16 15 15 16 15 13 15 19 19 19 21 24 27 20 17 26 25 22 25 22 31 33 32 35 35 39
13 13 13 12 12 11 11 12 12 12 12 13 14 15 14 16 17 16 19 19 19 18 18 18 15 13 11 14 16 20 21 29 28 25 31 30 30 28 22 32 35 30 29 35 40
10 11 11 12 12 12 11 12 11 13 13 13 12 4 11 14 17 15 12 12 13 15 18 15 9 8 12 18 20 21 22 33 35 32 37 37 35 32 25 29 35 39 37 37 41
6 6 5 5 6 6 7 7 7 7 6 9 9 11 16 16 12 14 12 14 15 14 12 14 3 9 9 16 24 28 28 32 30 29 43 39 44 40 36 36 39 46 49 44 36
6 7 7 6 7 7 6 7 4 3 4 2 9 12 13 8 13 15 19 18 14 14 16 12 15 19 22 18 24 19 28 30 26 28 31 33 49 45 43 39 29 36 42 43 42
6 6 5 5 5 5 5 4 2 1 2 5 7 10 9 11 17 18 17 17 24 22 18 13 19 23 31 29 28 30 30 27 26 28 34 29 28 27 29 29 38 39 41 44 45
6 5 5 5 5 6 7 3 1 6 9 10 13 14 14 12 21 17 19 25 28 27 26 19 22 27 31 33 37 39 41 40 39 37 36 28 23 28 30 35 38 38 45 51 50
5 5 7 6 5 4 8 5 7 9 5 12 15 16 11 21 24 23 21 25 31 34 31 29 22 28 36 40 38 30 48 36 41 34 36 36 34 37 39 43 44 43 42 48 51
6 6 5 10 7 7 9 8 9 9 13 15 17 13 15 20 21 21 25 31 34 27 26 30 29 28 33 38 44 44 38 37 42 37 41 32 46 49 41 42 46 49 38 40 40
7 8 8 10 9 8 10 15 10 14 17 18 16 17 18 19 20 22 22 20 18 22 23 25 30 29 28 30 31 37 42 43 39 52 46 45 40 34 44 35 42 49 38 41 46
10 8 11 12 7 10 12 13 14 12 17 17 17 19 18 19 20 18 21 24 20 20 24 27 32 30 29 30 29 29 31 34 38 42 41 47 53 48 44 45 39 40 43 42 36
16 13 12 12 10 11 10 10 13 15 16 18 17 19 19 20 19 21 23 22 23 24 26 30 32 33 30 21 26 31 31 32 35 43 50 55 55 52 55 51 51 43 46 57 42
17 18 15 13 15 12 10 10 12 15 15 17 18 19 20 21 23 23 23 26 27 26 27 29 32 35 28 23 17 26 31 35 34 37 39 43 46 53 59 63 59 50 51 49 44
19 21 17 16 15 18 15 15 17 14 16 18 20 21 22 23 25 25 26 28 28 29 26 28 30 29 25 26 29 24 19 34 39 39 41 39 38 41 49 50 50 51 63 68 59
21 22 22 21 15 20 20 20 21 22 22 20 22 24 25 25 25 25 28 28 27 28 24 26 29 26 19 24 27 30 22 20 21 29 32 41 38 38 36 36 29 31 45 56 60
24 24 21 23 24 23 23 23 23 25 24 27 27 27 28 29 28 27 27 28 26 26 23 23 26 24 21 25 26 27 20 18 17 20 21 25 27 32 34 38 42 40 33 37 42
23 25 26 24 24 26 28 25 25 25 27 26 27 29 31 30 30 30 28 27 27 25 20 18 23 24 17 22 21 18 18 19 18 19 21 25 25 22 25 28 31 29 32 34 39
Wind_Direction
287 291 293 295 292 287 285 285 288 284 282 288 288 287 287 295 292 278 267 255 256 248 231 226 231 241 252 263 266 269 265 256 221 222 203 296 323 271 307 257 260 248 283 267 292
289 290 294 296 295 294 291 282 281 285 287 287 284 283 291 290 288 270 266 266 257 241 227 225 230 239 245 257 264 271 269 260 209 205 165 4 310 269 224 248 253 263 256 256 273
288 291 294 295 294 293 291 285 285 286 288 287 282 284 288 287 283 273 265 265 255 235 221 225 233 243 247 253 261 266 269 252 210 209 207 186 208 271 261 246 253 242 251 251 257
288 291 293 292 289 290 289 285 283 288 289 285 280 281 282 282 274 268 268 262 255 232 226 229 237 243 251 252 258 258 265 261 227 208 217 216 243 241 268 280 276 195 224 251 265
287 289 291 290 286 288 284 279 281 282 282 279 278 280 278 276 275 267 267 264 253 240 234 238 243 251 256 249 257 258 252 259 234 223 220 218 236 250 245 258 227 137 228 218 266
290 291 290 289 285 285 279 276 279 280 279 278 278 278 276 275 268 276 271 262 254 248 242 246 251 252 254 252 253 260 253 253 246 231 229 228 238 249 256 255 265 274 305 233 255
286 290 289 285 283 282 279 281 279 279 281 279 280 278 277 275 275 271 270 259 251 252 253 255 259 260 256 261 255 254 259 251 255 236 229 240 244 251 263 266 274 269 258 257 268
291 288 283 278 278 280 281 281 279 281 281 280 279 276 275 274 274 272 268 262 257 256 255 259 261 257 257 256 258 257 262 265 252 241 240 240 249 256 267 269 271 270 235 266 260
282 279 277 278 279 278 279 283 281 282 280 280 279 279 279 276 271 270 268 267 264 261 259 258 259 259 259 253 254 259 264 255 241 238 237 253 263 256 262 264 271 269 251 253 261
272 273 275 278 278 278 282 282 283 282 282 282 282 283 285 279 276 273 272 269 265 261 259 258 257 262 260 259 252 248 261 263 255 240 244 251 259 255 281 296 278 275 274 277 268
274 274 275 275 279 282 282 281 281 279 277 277 280 283 281 276 279 281 279 277 274 271 267 262 259 252 252 248 253 248 251 264 265 259 256 256 265 277 278 290 289 283 285 278 264
283 282 282 285 284 287 289 289 287 285 283 283 281 273 285 290 285 281 277 274 272 269 266 263 248 246 280 291 262 241 237 227 235 226 256 253 263 259 274 283 288 282 275 274 272
296 294 291 287 287 285 285 290 291 290 294 290 281 312 330 319 305 296 289 284 288 276 261 266 257 273 275 268 268 273 250 234 242 228 226 241 249 249 254 259 274 277 272 274 281
323 327 327 319 311 309 307 300 292 309 310 331 1 340 332 324 327 312 312 310 307 288 276 266 87 246 252 272 278 268 269 265 259 239 231 233 250 245 237 245 260 272 282 283 287
335 333 329 325 325 322 315 293 310 313 313 85 336 336 356 325 308 304 302 311 296 284 288 279 231 233 223 238 252 251 240 265 262 248 248 234 236 244 243 245 257 278 280 284 289
342 347 352 351 359 3 338 337 357 312 304 184 329 341 326 279 298 298 299 284 293 294 286 271 254 252 239 227 239 249 246 241 239 245 255 264 263 265 258 247 241 245 259 272 275
359 10 14 15 25 19 321 23 235 264 305 330 332 322 313 306 298 299 308 302 290 287 289 284 265 264 266 265 242 243 251 248 240 235 245 252 242 238 241 248 247 238 242 256 263
359 4 359 343 343 347 309 316 304 314 310 310 304 307 286 292 296 316 311 295 296 307 311 301 275 270 271 275 270 253 255 255 250 243 247 230 240 242 237 240 242 239 240 246 250
330 335 327 328 316 313 307 299 298 298 301 302 298 303 305 300 311 309 300 301 307 313 312 308 293 282 273 265 269 269 272 269 267 258 246 236 228 236 235 239 243 246 248 248 251
310 313 315 286 292 297 299 304 295 303 304 300 292 294 300 302 303 306 305 311 325 325 332 325 319 317 303 279 271 273 271 265 256 267 264 255 252 253 245 253 257 255 267 251 240
283 281 285 284 291 293 302 308 314 316 303 300 297 294 301 304 308 309 311 314 324 327 328 326 325 325 310 297 292 271 255 247 253 258 268 269 262 262 253 249 245 259 254 256 244
288 287 278 279 279 287 301 311 307 317 315 310 302 295 298 301 303 307 305 308 316 324 326 327 327 327 319 304 293 283 274 262 250 243 254 264 267 266 259 260 261 263 252 249 252
284 282 278 275 282 287 285 291 302 314 318 320 319 312 303 297 299 306 308 305 314 317 327 331 331 327 318 297 295 272 266 261 253 254 260 263 264 269 269 267 259 257 261 256 257
277 274 279 269 276 285 289 292 295 297 310 315 315 316 315 302 297 300 302 309 317 319 325 332 334 326 315 318 323 326 302 265 262 257 251 262 263 270 276 273 268 265 256 261 254
280 280 280 280 258 271 277 284 294 302 307 311 313 313 315 313 307 297 300 306 309 315 319 331 336 330 303 305 313 325 314 298 279 278 279 277 270 267 274 270 264 282 273 267 265
285 278 275 278 280 278 277 282 288 297 303 309 315 315 315 316 313 308 301 301 302 308 316 332 337 334 298 297 306 321 334 343 320 305 300 305 295 294 275 277 284 284 283 281 282
281 280 277 278 274 273 279 286 287 294 300 304 307 311 314 315 313 310 306 302 299 299 308 330 331 339 325 297 304 329 342 337 338 333 322 308 300 301 296 280 288 292 283 286 272